Flag for Austria Weather past 2 weeks in Mattersburg, Burgenland, Austria

Now
74 °F

Mild.


Feels Like: 77 °F
Forecast: 49 / 68 °F
Wind: 7 mph from Southeast

Location: Eisenstadt

Current Time: Apr 25, 2015 at 3:49:48 PM

Latest Report: Apr 25, 2015 at 3:00 PM


Visibility: N/A

Pressure: 29.83 "Hg

Humidity: 32%

Dew point: 42 °F

Location of MattersburgLocation

Historic Weather in Mattersburg — Graph

°F

Mattersburg temperature yesterday

Maximum temperature yesterday: 66 °F (at 6:00 PM)
Minimum temperature yesterday: 46 °F (at 7:00 AM)
Average temperature yesterday: 58 °F

Past Weeks' High & Low Weather Summary

 TemperatureHumidityPressure
High81 °F (Apr 16, 2:00 PM)94% (Apr 17, 8:00 PM)30.42 "Hg (Apr 17, 8:00 PM)
Low34 °F (Apr 19, 2:00 AM)15% (Apr 16, 2:00 PM)29.79 "Hg (Apr 17, 5:00 PM)
Average57 °F52%30.11 "Hg
* Reported Apr 10 2:00 PM — Apr 25 2:00 PM, Mattersburg, Weather by CustomWeather, © 2015

Note: Actual official high and low records may vary slightly from our data, if they occured in-between our weather recording intervals... More about our weather records

Advertising

Mattersburg weather history for previous 24 hours

 ConditionsComfort  
Time TempWeatherWind HumidityBarometerVisibility
2:00 PM
Sat, Apr 25
73 °FPassing clouds.7 mph32%29.85 "Hg16 mi
1:00 PM72 °FMild.6 mph36%29.88 "HgN/A
12:00 PM69 °FMild.5 mph47%29.90 "HgN/A
11:00 AM63 °FPassing clouds.3 mph59%29.93 "Hg16 mi
10:00 AM60 °FCool.2 mph63%29.95 "HgN/A
9:00 AM56 °FCool.2 mph71%29.95 "HgN/A
8:00 AM49 °FSunny.1 mph80%29.96 "Hg12 mi
7:00 AM47 °FSunny.No wind88%29.96 "Hg16 mi
6:00 AM46 °FSunny.3 mph91%29.95 "Hg17 mi
5:00 AM46 °FClear.2 mph90%29.95 "Hg9 mi
4:00 AM47 °FClear.3 mph88%29.95 "Hg9 mi
3:00 AM48 °FCool.2 mph87%29.96 "HgN/A
2:00 AM49 °FClear.3 mph84%29.96 "Hg9 mi
1:00 AM49 °FCool.3 mph83%29.97 "HgN/A
12:00 AM50 °FCool.2 mph81%29.97 "HgN/A
11:00 PM
Fri, Apr 24
51 °FClear.2 mph77%29.97 "Hg9 mi
10:00 PM52 °FCool.3 mph76%29.97 "HgN/A
9:00 PM54 °FCool.3 mph72%29.96 "HgN/A
8:00 PM58 °FClear.2 mph67%29.95 "Hg12 mi
7:00 PM65 °FMild.1 mph44%29.93 "HgN/A
6:00 PM66 °FMild.1 mph42%29.93 "HgN/A
5:00 PM66 °FOvercast.1 mph41%29.94 "Hg12 mi
4:00 PM65 °FMild.2 mph46%29.96 "HgN/A
3:00 PM65 °FMild.2 mph43%29.97 "HgN/A
Weather by CustomWeather, © 2015

See weather overviewHow to use our weather pages